SCP
-0 0 0 0 0 0 -0 -0 -0 -0 -0 -0 -0 -0 -0 -0 -0 0 0 0 0 0 0 0 0 0 0 0 0 0 0 0 0 0 0 -0 0 0 0 -0 0 0 -0 0 0
-0 -0 -0 0 0 0 -0 -0 -0 -0 -0 -0 -0 -0 -0 -0 0 0 0 0 0 0 0 0 0 0 0 0 -0 -0 0 0 0 0 0 -0 -0 0 0 -0 -0 -0 -0 0 -0
-0 -0 -0 -0 -0 -0 -0 -0 -0 -0 -0 -0 -0 -0 -0 -0 0 0 0 0 0 0 0 0 0 0 0 -0 -0 -0 -0 0 0 0 0 -0 -0 0 0 0 0 0 0 0 0
-0 -0 -0 0 -0 -0 -0 -0 -0 -0 -0 -0 -0 -0 -0 0 0 0 0 0 0 0 0 0 0 0 0 -0 -0 -0 -0 -0 -0 -0 0 0 -0 0 0 0 -0 0 0 0 0
-0 -0 0 0 0 -0 -0 -0 -0 -0 -0 -0 -0 -0 0 0 0 0 0 0 0 0 0 0 0 0 0 -0 0 0 -0 0 -0 0 0 0 0 0 -0 -0 -0 -0 0 0 0
-0 -0 0 0 0 0 -0 -0 -0 -0 -0 -0 -0 -0 0 0 0 0 0 0 0 0 0 0 0 0 0 0 -0 -0 -0 -0 -0 0 0 0 0 -0 -0 -0 -0 -0 -0 0 0
0 0 -0 0 0 0 0 -0 -0 -0 -0 -0 -0 0 0 0 0 0 0 0 0 0 0 0 0 0 0 -0 -0 0 0 -0 0 0 -0 0 -0 -0 -0 -0 -0 -0 -0 0 0
0 0 -0 -0 -0 0 0 0 -0 -0 -0 0 0 0 0 0 0 0 0 0 0 0 0 0 0 0 0 0 0 0 0 0 0 0 0 0 0 0 -0 0 -0 0 0 0 0
0 0 -0 -0 -0 0 0 0 -0 -0 -0 -0 0 0 -0 0 0 0 0 0 0 0 0 0 0 0 0 0 -0 -0 -0 0 0 0 0 0 0 0 0 -0 0 0 0 0 0
-0 0 -0 -0 -0 0 0 0 0 0 0 -0 0 0 0 0 0 0 0 0 0 0 0 0 -0 -0 0 0 -0 -0 -0 0 0 0 0 0 0 0 0 0 0 0 0 0 0
-0 -0 -0 0 -0 -0 -0 0 0 0 0 0 0 0 -0 0 0 0 0 0 0 0 0 0 -0 0 -0 -0 0 0 0 0 0 0 0 0 0 -0 0 0 0 0 0 0 0
-0 -0 -0 -0 -0 -0 -0 0 0 -0 0 0 0 0 -0 0 0 0 0 0 0 -0 -0 -0 0 -0 0 0 -0 -0 0 0 0 0 0 0 0 0 0 0 -0 0 0 0 0
0 -0 -0 -0 -0 0 0 0 0 -0 0 0 -0 -0 -0 0 0 0 0 0 -0 -0 -0 -0 -0 -0 0 -0 -0 -0 0 0 0 0 0 0 0 0 0 0 -0 -0 -0 0 0
0 0 -0 -0 0 0 0 0 0 -0 0 0 0 0 0 0 0 0 0 0 -0 -0 0 -0 -0 -0 0 0 0 0 -0 0 -0 0 0 0 0 0 0 0 0 -0 -0 0 0
0 0 0 0 0 0 0 0 0 0 0 0 0 0 0 0 0 0 0 0 -0 -0 -0 -0 0 -0 0 0 0 0 0 0 0 0 0 0 0 0 0 0 0 0 0 0 0
0 0 0 0 0 -0 -0 0 0 0 0 0 0 0 0 0 0 0 0 0 0 -0 -0 -0 -0 0 0 0 0 0 0 0 0 0 0 0 0 0 0 0 0 0 0 0 0
0 0 0 0 0 0 0 0 0 0 0 -0 -0 0 -0 0 0 0 0 0 -0 0 0 0 0 0 0 0 0 0 0 0 0 0 0 0 0 0 0 0 0 0 0 0 0
0 0 -0 0 0 0 0 0 0 0 0 -0 0 0 0 0 0 0 0 0 0 0 0 0 0 0 -0 0 0 0 0 0 0 0 0 0 0 0 0 0 0 0 0 0 0
0 0 0 0 0 0 0 -0 0 0 0 -0 0 0 0 0 0 0 0 0 0 0 0 0 -0 0 0 0 0 0 0 0 -0 0 0 0 0 0 0 0 0 0 0 0 0
0 0 0 0 0 0 0 -0 0 0 0 0 0 0 -0 -0 0 0 0 0 0 -0 0 0 0 0 0 0 0 -0 0 0 0 0 0 0 0 0 0 0 0 0 0 0 0
0 0 0 0 0 0 0 0 0 0 0 0 0 0 0 -0 -0 0 0 0 0 0 0 0 0 0 0 0 0 0 0 0 0 0 0 0 0 0 0 0 0 0 0 0 0
0 0 0 0 0 0 0 -0 0 0 0 0 0 0 0 0 -0 0 0 0 0 0 0 0 0 0 0 0 -0 0 0 0 0 0 0 0 0 0 0 0 0 0 0 0 0
0 0 0 0 0 0 0 -0 -0 0 0 0 0 0 0 0 0 0 0 0 0 0 0 0 0 0 0 0 0 0 0 0 0 0 0 0 0 0 0 0 0 0 0 0 0
0 0 0 0 0 0 0 0 0 0 0 0 0 0 0 0 0 0 0 0 0 0 0 0 0 0 0 0 0 0 0 0 0 0 0 0 0 0 0 0 0 0 0 0 0
0 0 0 0 0 0 0 0 0 0 0 0 0 0 0 0 0 0 0 0 0 0 0 0 0 0 0 0 0 0 0 0 0 0 0 0 0 0 0 0 0 0 0 0 0
0 0 0 0 0 0 0 0 0 0 0 0 0 0 0 0 0 0 0 0 0 0 0 0 0 0 0 0 0 0 0 0 0 0 0 0 0 0 0 0 0 0 0 0 0
0 0 0 0 0 0 0 0 0 0 0 0 0 0 0 0 0 0 0 0 0 0 0 0 0 0 0 0 0 0 0 0 0 0 0 0 0 0 0 0 0 0 0 0 0
Wind_Speed_500mb
21 23 26 29 31 33 31 30 31 30 31 34 35 37 36 30 14 12 8 7 8 5 8 13 19 20 30 26 30 17 9 5 15 18 11 23 11 30 38 45 13 8 45 48 46
23 24 26 30 33 34 33 30 30 30 30 33 34 34 32 30 16 8 6 8 12 12 7 7 14 33 35 26 14 18 9 17 7 20 11 3 4 25 23 54 31 58 49 38 35
23 25 27 31 35 37 36 31 29 28 29 32 32 31 29 28 10 16 19 14 7 3 3 4 18 29 12 15 13 7 10 18 14 29 36 17 3 8 50 23 30 47 41 40 5
20 23 29 33 37 39 38 33 28 27 27 30 30 28 23 18 5 19 24 9 3 5 5 1 23 41 22 13 17 26 47 43 31 38 21 4 14 42 56 35 61 41 41 31 33
19 24 30 36 38 40 38 33 27 25 25 27 27 25 20 12 11 20 21 4 8 4 2 9 23 21 13 20 31 30 16 44 52 34 24 14 35 26 50 54 48 51 47 41 41
20 25 30 37 39 39 38 32 26 23 23 24 23 22 19 6 14 18 26 6 11 6 2 10 18 42 3 2 9 30 34 38 31 45 33 31 49 31 46 48 56 50 46 42 43
20 25 31 37 39 39 37 30 24 22 21 21 19 23 16 7 12 11 13 4 10 5 8 15 28 31 28 16 28 41 19 11 21 27 14 52 53 45 55 46 38 31 46 42 42
22 28 32 35 37 38 35 29 24 21 20 18 17 18 11 8 9 14 6 10 11 4 13 15 23 44 3 33 6 9 10 10 21 8 18 30 14 31 34 34 44 42 28 43 40
21 28 33 35 36 37 34 27 22 18 19 16 15 13 10 9 7 17 15 11 3 6 15 26 30 19 10 12 10 11 6 7 8 24 11 17 10 10 36 11 29 34 27 32 39
22 28 31 33 35 35 31 21 22 16 14 17 18 12 5 6 3 13 18 12 7 14 17 9 9 5 8 11 4 10 8 2 12 10 41 33 20 20 30 18 15 18 14 20 30
22 27 29 31 33 32 23 16 21 5 41 25 22 20 15 18 3 11 18 9 13 12 2 11 11 12 26 16 18 6 14 19 20 18 19 18 23 21 28 16 15 27 21 22 19
21 26 27 27 28 23 17 18 20 18 21 31 26 37 33 20 11 16 16 10 6 9 7 13 11 28 17 11 15 24 18 12 11 6 19 15 21 15 12 10 15 27 22 39 27
18 24 25 23 19 12 15 21 21 21 9 27 16 20 17 8 10 19 21 11 2 4 4 7 25 45 9 22 26 11 19 12 18 12 4 21 9 10 4 9 11 9 38 34 27
17 21 23 20 10 13 15 19 26 23 9 13 9 12 20 17 8 25 29 13 3 4 8 14 37 23 6 12 19 8 12 39 34 8 4 7 5 2 4 6 15 19 39 31 25
16 19 21 17 10 3 16 12 18 4 5 5 9 4 7 16 5 17 31 21 6 13 8 25 11 16 15 10 9 11 8 16 9 14 9 14 6 6 6 3 10 22 29 26 37
15 20 21 20 13 7 11 11 13 10 8 6 12 5 4 14 9 5 33 16 4 1 5 17 17 6 14 9 15 19 20 19 9 7 7 8 4 8 10 11 6 16 17 45 49
18 20 22 22 7 6 9 9 9 5 11 6 8 8 5 4 3 3 10 5 8 8 12 12 11 12 13 12 11 10 12 6 6 9 5 5 6 15 8 12 14 12 58 62 51
21 22 26 21 11 5 7 10 3 8 12 9 7 8 7 2 5 4 2 6 1 9 2 2 12 7 11 11 7 6 12 10 8 8 5 10 6 10 7 27 18 31 60 55 47
21 24 24 8 21 8 3 6 12 11 10 7 10 8 4 6 5 3 14 13 14 15 11 6 8 7 7 3 12 6 6 8 13 8 9 5 10 9 12 12 16 31 55 56 48
21 23 11 16 18 14 8 10 9 8 16 10 4 6 17 14 11 11 10 12 8 15 28 11 6 6 8 23 14 6 4 10 8 5 3 5 7 8 5 10 16 29 53 51 37
15 10 4 26 22 8 6 13 11 23 39 6 1 5 5 11 18 11 10 5 3 1 5 9 5 8 8 3 7 9 8 11 9 8 9 5 11 12 15 15 18 19 53 53 44
9 2 22 24 7 3 5 9 20 21 55 14 3 4 6 5 12 14 6 6 6 19 14 8 9 6 9 8 8 9 12 10 10 7 5 9 9 7 21 29 45 34 58 53 47
8 8 33 27 3 5 13 9 18 18 15 10 4 2 5 6 7 2 7 8 5 8 12 11 3 5 13 13 9 5 8 9 10 6 1 10 8 16 31 36 53 57 63 59 55
4 4 11 32 17 7 4 10 8 24 27 3 4 2 8 8 7 6 3 9 7 10 10 9 6 14 12 13 7 5 5 7 12 8 4 4 12 10 14 21 43 44 63 60 50
5 8 5 5 14 16 7 7 9 9 12 2 8 3 4 4 10 5 4 5 13 7 5 9 7 8 10 6 1 8 5 16 10 16 11 19 26 31 28 31 53 48 60 57 47
2 5 8 16 25 17 13 8 10 13 12 12 8 13 4 10 8 3 7 1 7 1 4 6 3 1 9 9 12 6 11 16 12 13 14 16 8 25 51 43 44 39 66 56 52
3 3 8 11 15 10 10 13 16 10 18 30 28 7 4 8 13 19 18 14 14 15 6 6 7 6 1 7 12 9 7 11 7 7 20 15 15 24 12 40 51 54 66 61 54
Wind_Direction_500mb
335 336 339 337 336 333 331 325 322 329 332 333 336 338 336 341 346 324 357 60 47 346 262 281 290 305 307 267 242 231 92 144 186 160 223 254 114 102 83 69 119 149 138 128 136
333 335 341 342 340 338 335 328 322 327 333 332 337 341 337 344 348 345 13 25 17 321 322 326 321 322 317 296 208 155 121 191 128 164 188 184 129 156 114 89 82 100 105 117 154
334 336 342 345 341 341 338 333 323 325 333 331 338 342 337 345 43 32 19 17 353 26 146 7 325 304 290 352 54 116 106 119 141 168 152 181 74 80 96 99 133 120 113 138 164
331 336 340 341 341 340 339 335 323 324 332 332 338 343 340 353 71 3 356 355 91 159 181 14 333 344 8 91 75 95 133 147 167 158 144 221 184 72 101 121 127 114 120 154 120
332 335 336 337 339 339 337 334 325 325 329 332 336 341 347 345 13 10 4 36 115 131 265 346 348 358 21 110 75 102 136 143 158 144 140 86 42 81 105 130 117 115 121 115 109
329 331 332 334 336 336 334 334 326 323 326 330 332 337 340 321 27 8 12 90 122 159 324 341 333 341 245 220 160 175 152 153 143 109 121 70 33 45 121 113 106 97 100 105 106
322 326 330 331 333 334 333 332 322 321 322 324 329 329 305 231 323 312 9 107 125 111 293 350 341 317 322 78 123 127 98 112 144 122 110 78 28 24 9 83 61 103 109 106 109
322 325 328 331 332 333 332 329 318 319 315 317 321 319 263 261 227 231 277 139 132 160 294 334 328 310 212 130 89 91 56 77 9 124 49 93 111 136 52 36 57 71 97 117 119
318 323 329 331 331 332 332 327 324 323 313 307 308 316 270 269 255 189 201 155 118 289 304 303 300 301 34 86 13 9 97 74 25 5 106 54 169 162 115 207 108 80 107 122 133
321 324 330 331 332 334 334 335 324 312 335 311 280 303 266 4 335 151 161 161 244 317 316 319 314 45 83 61 197 229 84 263 118 40 86 94 133 140 141 159 122 128 150 119 146
321 324 329 332 333 336 342 3 0 351 325 283 291 289 303 345 155 188 147 182 261 269 264 334 32 276 268 161 211 120 97 107 113 120 69 98 122 147 159 150 192 160 150 157 163
322 324 328 334 335 340 358 26 26 346 311 298 278 272 279 290 295 203 189 189 183 225 21 1 275 260 260 195 198 87 107 100 66 359 104 157 150 158 151 176 193 145 151 167 160
325 321 325 330 335 4 38 36 7 352 300 294 247 257 253 284 223 218 198 175 200 310 359 161 261 290 295 97 101 136 149 172 146 147 110 160 134 155 109 173 181 186 163 176 175
333 325 323 325 329 343 42 14 356 327 42 278 189 245 251 250 269 210 203 168 83 220 257 251 300 253 212 98 114 112 165 142 157 159 152 77 119 160 191 238 232 215 179 194 174
337 329 322 315 300 332 340 5 350 322 11 247 190 144 258 183 307 197 203 198 232 272 79 275 284 109 84 140 118 186 105 116 113 82 77 343 80 200 306 127 197 204 204 213 174
324 325 321 306 287 317 302 314 335 46 274 278 160 198 137 210 278 59 189 197 236 354 15 248 256 147 153 103 95 110 84 65 65 101 50 270 96 297 166 177 170 179 139 155 157
310 307 308 287 215 343 315 347 45 129 315 224 177 160 172 187 293 31 150 147 160 42 312 338 333 348 89 77 53 93 82 20 349 23 222 353 26 241 187 188 184 140 145 155 151
303 297 293 276 239 284 342 52 136 257 268 230 158 106 173 107 280 251 305 204 249 108 150 196 344 48 307 115 164 85 136 152 237 171 222 2 265 269 256 174 167 136 154 153 148
303 294 295 233 194 181 69 84 215 218 291 359 64 114 235 270 158 104 189 211 217 171 158 165 256 315 356 64 102 325 345 192 111 65 88 240 282 351 67 92 154 158 155 154 148
310 309 262 148 162 186 80 235 244 247 304 29 138 148 188 218 176 172 201 199 239 179 164 212 56 343 306 53 28 84 230 30 11 98 63 290 291 236 173 174 165 178 150 148 145
328 323 126 172 160 163 172 237 295 304 356 72 170 81 225 228 194 172 216 278 130 257 62 128 118 323 34 60 204 11 20 55 105 129 151 167 265 204 190 163 174 158 154 156 157
314 346 170 169 154 186 201 220 322 304 320 285 120 145 232 237 178 194 146 215 331 168 140 182 122 125 232 249 230 163 168 126 113 275 100 130 273 343 175 179 174 161 160 162 165
309 287 185 203 183 260 284 289 272 292 298 290 281 131 39 307 98 186 138 40 154 140 166 180 89 75 348 355 1 140 172 142 106 84 308 123 258 16 145 149 163 159 162 165 163
279 344 210 220 240 149 320 279 259 287 276 237 288 235 20 344 354 127 107 46 58 81 99 86 113 148 169 209 177 310 223 101 119 98 202 195 145 241 165 165 173 161 162 161 160
227 252 313 270 260 225 204 277 314 311 297 188 344 335 175 339 4 90 60 25 40 33 63 96 135 152 218 287 13 227 109 160 126 167 133 184 164 192 189 192 190 170 168 160 158
239 343 332 284 273 186 181 254 222 267 226 270 173 259 355 203 165 329 129 133 209 347 85 29 235 103 39 13 45 23 357 118 123 126 94 136 185 188 201 199 184 171 171 169 171
303 280 276 324 315 121 220 223 264 347 287 243 222 180 275 273 302 278 237 225 200 153 137 105 111 69 116 349 53 358 309 166 134 127 134 150 212 149 166 192 196 177 178 177 177
Wind_Speed_850mb
21 23 26 29 31 33 31 30 31 30 31 34 35 37 36 30 14 12 8 7 8 5 8 13 19 20 30 26 30 17 9 5 15 18 11 23 11 30 38 45 13 8 45 48 46
23 24 26 30 33 34 33 30 30 30 30 33 34 34 32 30 16 8 6 8 12 12 7 7 14 33 35 26 14 18 9 17 7 20 11 3 4 25 23 54 31 58 49 38 35
23 25 27 31 35 37 36 31 29 28 29 32 32 31 29 28 10 16 19 14 7 3 3 4 18 29 12 15 13 7 10 18 14 29 36 17 3 8 50 23 30 47 41 40 5
20 23 29 33 37 39 38 33 28 27 27 30 30 28 23 18 5 19 24 9 3 5 5 1 23 41 22 13 17 26 47 43 31 38 21 4 14 42 56 35 61 41 41 31 33
19 24 30 36 38 40 38 33 27 25 25 27 27 25 20 12 11 20 21 4 8 4 2 9 23 21 13 20 31 30 16 44 52 34 24 14 35 26 50 54 48 51 47 41 41
20 25 30 37 39 39 38 32 26 23 23 24 23 22 19 6 14 18 26 6 11 6 2 10 18 42 3 2 9 30 34 38 31 45 33 31 49 31 46 48 56 50 46 42 43
20 25 31 37 39 39 37 30 24 22 21 21 19 23 16 7 12 11 13 4 10 5 8 15 28 31 28 16 28 41 19 11 21 27 14 52 53 45 55 46 38 31 46 42 42
22 28 32 35 37 38 35 29 24 21 20 18 17 18 11 8 9 14 6 10 11 4 13 15 23 44 3 33 6 9 10 10 21 8 18 30 14 31 34 34 44 42 28 43 40
21 28 33 35 36 37 34 27 22 18 19 16 15 13 10 9 7 17 15 11 3 6 15 26 30 19 10 12 10 11 6 7 8 24 11 17 10 10 36 11 29 34 27 32 39
22 28 31 33 35 35 31 21 22 16 14 17 18 12 5 6 3 13 18 12 7 14 17 9 9 5 8 11 4 10 8 2 12 10 41 33 20 20 30 18 15 18 14 20 30
22 27 29 31 33 32 23 16 21 5 41 25 22 20 15 18 3 11 18 9 13 12 2 11 11 12 26 16 18 6 14 19 20 18 19 18 23 21 28 16 15 27 21 22 19
21 26 27 27 28 23 17 18 20 18 21 31 26 37 33 20 11 16 16 10 6 9 7 13 11 28 17 11 15 24 18 12 11 6 19 15 21 15 12 10 15 27 22 39 27
18 24 25 23 19 12 15 21 21 21 9 27 16 20 17 8 10 19 21 11 2 4 4 7 25 45 9 22 26 11 19 12 18 12 4 21 9 10 4 9 11 9 38 34 27
17 21 23 20 10 13 15 19 26 23 9 13 9 12 20 17 8 25 29 13 3 4 8 14 37 23 6 12 19 8 12 39 34 8 4 7 5 2 4 6 15 19 39 31 25
16 19 21 17 10 3 16 12 18 4 5 5 9 4 7 16 5 17 31 21 6 13 8 25 11 16 15 10 9 11 8 16 9 14 9 14 6 6 6 3 10 22 29 26 37
15 20 21 20 13 7 11 11 13 10 8 6 12 5 4 14 9 5 33 16 4 1 5 17 17 6 14 9 15 19 20 19 9 7 7 8 4 8 10 11 6 16 17 45 49
18 20 22 22 7 6 9 9 9 5 11 6 8 8 5 4 3 3 10 5 8 8 12 12 11 12 13 12 11 10 12 6 6 9 5 5 6 15 8 12 14 12 58 62 51
21 22 26 21 11 5 7 10 3 8 12 9 7 8 7 2 5 4 2 6 1 9 2 2 12 7 11 11 7 6 12 10 8 8 5 10 6 10 7 27 18 31 60 55 47
21 24 24 8 21 8 3 6 12 11 10 7 10 8 4 6 5 3 14 13 14 15 11 6 8 7 7 3 12 6 6 8 13 8 9 5 10 9 12 12 16 31 55 56 48
21 23 11 16 18 14 8 10 9 8 16 10 4 6 17 14 11 11 10 12 8 15 28 11 6 6 8 23 14 6 4 10 8 5 3 5 7 8 5 10 16 29 53 51 37
15 10 4 26 22 8 6 13 11 23 39 6 1 5 5 11 18 11 10 5 3 1 5 9 5 8 8 3 7 9 8 11 9 8 9 5 11 12 15 15 18 19 53 53 44
9 2 22 24 7 3 5 9 20 21 55 14 3 4 6 5 12 14 6 6 6 19 14 8 9 6 9 8 8 9 12 10 10 7 5 9 9 7 21 29 45 34 58 53 47
8 8 33 27 3 5 13 9 18 18 15 10 4 2 5 6 7 2 7 8 5 8 12 11 3 5 13 13 9 5 8 9 10 6 1 10 8 16 31 36 53 57 63 59 55
4 4 11 32 17 7 4 10 8 24 27 3 4 2 8 8 7 6 3 9 7 10 10 9 6 14 12 13 7 5 5 7 12 8 4 4 12 10 14 21 43 44 63 60 50
5 8 5 5 14 16 7 7 9 9 12 2 8 3 4 4 10 5 4 5 13 7 5 9 7 8 10 6 1 8 5 16 10 16 11 19 26 31 28 31 53 48 60 57 47
2 5 8 16 25 17 13 8 10 13 12 12 8 13 4 10 8 3 7 1 7 1 4 6 3 1 9 9 12 6 11 16 12 13 14 16 8 25 51 43 44 39 66 56 52
3 3 8 11 15 10 10 13 16 10 18 30 28 7 4 8 13 19 18 14 14 15 6 6 7 6 1 7 12 9 7 11 7 7 20 15 15 24 12 40 51 54 66 61 54
Wind_Direction_850mb
335 336 339 337 336 333 331 325 322 329 332 333 336 338 336 341 346 324 357 60 47 346 262 281 290 305 307 267 242 231 92 144 186 160 223 254 114 102 83 69 119 149 138 128 136
333 335 341 342 340 338 335 328 322 327 333 332 337 341 337 344 348 345 13 25 17 321 322 326 321 322 317 296 208 155 121 191 128 164 188 184 129 156 114 89 82 100 105 117 154
334 336 342 345 341 341 338 333 323 325 333 331 338 342 337 345 43 32 19 17 353 26 146 7 325 304 290 352 54 116 106 119 141 168 152 181 74 80 96 99 133 120 113 138 164
331 336 340 341 341 340 339 335 323 324 332 332 338 343 340 353 71 3 356 355 91 159 181 14 333 344 8 91 75 95 133 147 167 158 144 221 184 72 101 121 127 114 120 154 120
332 335 336 337 339 339 337 334 325 325 329 332 336 341 347 345 13 10 4 36 115 131 265 346 348 358 21 110 75 102 136 143 158 144 140 86 42 81 105 130 117 115 121 115 109
329 331 332 334 336 336 334 334 326 323 326 330 332 337 340 321 27 8 12 90 122 159 324 341 333 341 245 220 160 175 152 153 143 109 121 70 33 45 121 113 106 97 100 105 106
322 326 330 331 333 334 333 332 322 321 322 324 329 329 305 231 323 312 9 107 125 111 293 350 341 317 322 78 123 127 98 112 144 122 110 78 28 24 9 83 61 103 109 106 109
322 325 328 331 332 333 332 329 318 319 315 317 321 319 263 261 227 231 277 139 132 160 294 334 328 310 212 130 89 91 56 77 9 124 49 93 111 136 52 36 57 71 97 117 119
318 323 329 331 331 332 332 327 324 323 313 307 308 316 270 269 255 189 201 155 118 289 304 303 300 301 34 86 13 9 97 74 25 5 106 54 169 162 115 207 108 80 107 122 133
321 324 330 331 332 334 334 335 324 312 335 311 280 303 266 4 335 151 161 161 244 317 316 319 314 45 83 61 197 229 84 263 118 40 86 94 133 140 141 159 122 128 150 119 146
321 324 329 332 333 336 342 3 0 351 325 283 291 289 303 345 155 188 147 182 261 269 264 334 32 276 268 161 211 120 97 107 113 120 69 98 122 147 159 150 192 160 150 157 163
322 324 328 334 335 340 358 26 26 346 311 298 278 272 279 290 295 203 189 189 183 225 21 1 275 260 260 195 198 87 107 100 66 359 104 157 150 158 151 176 193 145 151 167 160
325 321 325 330 335 4 38 36 7 352 300 294 247 257 253 284 223 218 198 175 200 310 359 161 261 290 295 97 101 136 149 172 146 147 110 160 134 155 109 173 181 186 163 176 175
333 325 323 325 329 343 42 14 356 327 42 278 189 245 251 250 269 210 203 168 83 220 257 251 300 253 212 98 114 112 165 142 157 159 152 77 119 160 191 238 232 215 179 194 174
337 329 322 315 300 332 340 5 350 322 11 247 190 144 258 183 307 197 203 198 232 272 79 275 284 109 84 140 118 186 105 116 113 82 77 343 80 200 306 127 197 204 204 213 174
324 325 321 306 287 317 302 314 335 46 274 278 160 198 137 210 278 59 189 197 236 354 15 248 256 147 153 103 95 110 84 65 65 101 50 270 96 297 166 177 170 179 139 155 157
310 307 308 287 215 343 315 347 45 129 315 224 177 160 172 187 293 31 150 147 160 42 312 338 333 348 89 77 53 93 82 20 349 23 222 353 26 241 187 188 184 140 145 155 151
303 297 293 276 239 284 342 52 136 257 268 230 158 106 173 107 280 251 305 204 249 108 150 196 344 48 307 115 164 85 136 152 237 171 222 2 265 269 256 174 167 136 154 153 148
303 294 295 233 194 181 69 84 215 218 291 359 64 114 235 270 158 104 189 211 217 171 158 165 256 315 356 64 102 325 345 192 111 65 88 240 282 351 67 92 154 158 155 154 148
310 309 262 148 162 186 80 235 244 247 304 29 138 148 188 218 176 172 201 199 239 179 164 212 56 343 306 53 28 84 230 30 11 98 63 290 291 236 173 174 165 178 150 148 145
328 323 126 172 160 163 172 237 295 304 356 72 170 81 225 228 194 172 216 278 130 257 62 128 118 323 34 60 204 11 20 55 105 129 151 167 265 204 190 163 174 158 154 156 157
314 346 170 169 154 186 201 220 322 304 320 285 120 145 232 237 178 194 146 215 331 168 140 182 122 125 232 249 230 163 168 126 113 275 100 130 273 343 175 179 174 161 160 162 165
309 287 185 203 183 260 284 289 272 292 298 290 281 131 39 307 98 186 138 40 154 140 166 180 89 75 348 355 1 140 172 142 106 84 308 123 258 16 145 149 163 159 162 165 163
279 344 210 220 240 149 320 279 259 287 276 237 288 235 20 344 354 127 107 46 58 81 99 86 113 148 169 209 177 310 223 101 119 98 202 195 145 241 165 165 173 161 162 161 160
227 252 313 270 260 225 204 277 314 311 297 188 344 335 175 339 4 90 60 25 40 33 63 96 135 152 218 287 13 227 109 160 126 167 133 184 164 192 189 192 190 170 168 160 158
239 343 332 284 273 186 181 254 222 267 226 270 173 259 355 203 165 329 129 133 209 347 85 29 235 103 39 13 45 23 357 118 123 126 94 136 185 188 201 199 184 171 171 169 171
303 280 276 324 315 121 220 223 264 347 287 243 222 180 275 273 302 278 237 225 200 153 137 105 111 69 116 349 53 358 309 166 134 127 134 150 212 149 166 192 196 177 178 177 177